Time,TemperatureF,DewpointF,PressureIn,WindDirection,WindDirectionDegrees,WindSpeedMPH,WindSpeedGustMPH,Humidity,HourlyPrecipIn,Conditions,Clouds,dailyrainin,SoftwareType,DateUTC
2013-03-26 00:02:00,25.0,21.0,-100.00,NW,315,7.0,12.0,85,0.00,,,0.00,,2013-03-26 05:02:00,
2013-03-26 00:12:00,24.0,21.0,-100.00,NW,315,9.0,12.0,85,0.00,,,0.00,,2013-03-26 05:12:00,
2013-03-26 00:22:00,24.0,21.0,-100.00,NW,320,9.0,12.0,85,0.00,,,0.00,,2013-03-26 05:22:00,
2013-03-26 00:32:00,24.0,21.0,-100.00,NW,315,9.0,13.0,85,0.00,,,0.00,,2013-03-26 05:32:00,
2013-03-26 00:42:00,24.0,21.0,-100.00,NW,315,8.0,12.0,85,0.00,,,0.00,,2013-03-26 05:42:00,
2013-03-26 00:52:00,24.0,21.0,-100.00,NW,315,9.0,12.0,85,0.00,,,0.00,,2013-03-26 05:52:00,
2013-03-26 01:02:00,24.0,21.0,-100.00,NW,315,11.0,14.0,85,0.00,,,0.00,,2013-03-26 06:02:00,
2013-03-26 01:12:00,24.0,21.0,-100.00,NW,305,9.0,14.0,85,0.00,,,0.00,,2013-03-26 06:12:00,
2013-03-26 01:22:00,24.0,21.0,-100.00,WNW,300,9.0,12.0,85,0.00,,,0.00,,2013-03-26 06:22:00,
2013-03-26 01:32:00,24.0,19.0,-100.00,NW,305,9.0,14.0,85,0.00,,,0.00,,2013-03-26 06:32:00,
2013-03-26 01:42:00,23.0,19.0,-100.00,NW,315,6.0,11.0,85,0.00,,,0.00,,2013-03-26 06:42:00,
2013-03-26 01:52:00,23.0,19.0,-100.00,NW,315,6.0,8.0,85,0.00,,,0.00,,2013-03-26 06:52:00,
2013-03-26 02:02:00,23.0,19.0,-100.00,NW,310,5.0,9.0,86,0.00,,,0.00,,2013-03-26 07:02:00,
2013-03-26 02:12:00,23.0,19.0,-100.00,NW,305,8.0,10.0,86,0.00,,,0.00,,2013-03-26 07:12:00,
2013-03-26 02:22:00,23.0,19.0,-100.00,WNW,295,8.0,11.0,86,0.00,,,0.00,,2013-03-26 07:22:00,
2013-03-26 02:32:00,23.0,19.0,-100.00,WNW,295,7.0,9.0,86,0.00,,,0.00,,2013-03-26 07:32:00,
2013-03-26 02:42:00,23.0,19.0,-100.00,WNW,295,6.0,9.0,86,0.00,,,0.00,,2013-03-26 07:42:00,
2013-03-26 02:52:00,23.0,19.0,-100.00,WNW,295,7.0,10.0,86,0.00,,,0.00,,2013-03-26 07:52:00,
2013-03-26 03:02:00,22.0,19.0,-100.00,WNW,300,7.0,11.0,86,0.00,,,0.00,,2013-03-26 08:02:00,
2013-03-26 03:12:00,22.0,19.0,-100.00,WNW,295,6.0,9.0,86,0.00,,,0.00,,2013-03-26 08:12:00,
2013-03-26 03:22:00,22.0,19.0,-100.00,NW,305,7.0,9.0,86,0.00,,,0.00,,2013-03-26 08:22:00,
2013-03-26 03:32:00,22.0,19.0,-100.00,WNW,300,6.0,8.0,86,0.00,,,0.00,,2013-03-26 08:32:00,
2013-03-26 03:42:00,22.0,19.0,-100.00,WNW,295,6.0,7.0,87,0.00,,,0.00,,2013-03-26 08:42:00,
2013-03-26 03:52:00,22.0,19.0,-100.00,WNW,295,7.0,7.0,87,0.00,,,0.00,,2013-03-26 08:52:00,
2013-03-26 04:02:00,22.0,19.0,-100.00,NW,315,4.0,7.0,87,0.00,,,0.00,,2013-03-26 09:02:00,
2013-03-26 04:12:00,22.0,19.0,-100.00,West,270,3.0,6.0,87,0.00,,,0.00,,2013-03-26 09:12:00,
2013-03-26 04:22:00,22.0,19.0,-100.00,West,265,6.0,7.0,88,0.00,,,0.00,,2013-03-26 09:22:00,
2013-03-26 04:32:00,21.0,19.0,-100.00,West,280,7.0,9.0,89,0.00,,,0.00,,2013-03-26 09:32:00,
2013-03-26 04:42:00,22.0,19.0,-100.00,WNW,290,7.0,9.0,89,0.00,,,0.00,,2013-03-26 09:42:00,
2013-03-26 04:52:00,22.0,19.0,-100.00,WNW,295,6.0,9.0,88,0.00,,,0.00,,2013-03-26 09:52:00,
2013-03-26 05:02:00,21.0,19.0,-100.00,West,275,6.0,8.0,88,0.00,,,0.00,,2013-03-26 10:02:00,
2013-03-26 05:12:00,21.0,18.0,-100.00,West,280,6.0,8.0,88,0.00,,,0.00,,2013-03-26 10:12:00,
2013-03-26 05:22:00,21.0,18.0,-100.00,WNW,295,7.0,9.0,88,0.00,,,0.00,,2013-03-26 10:22:00,
2013-03-26 05:32:00,21.0,18.0,-100.00,WNW,285,5.0,7.0,88,0.00,,,0.00,,2013-03-26 10:32:00,
2013-03-26 05:42:00,21.0,18.0,-100.00,WNW,285,5.0,7.0,88,0.00,,,0.00,,2013-03-26 10:42:00,
2013-03-26 05:52:00,21.0,18.0,-100.00,WNW,290,6.0,9.0,88,0.00,,,0.00,,2013-03-26 10:52:00,
2013-03-26 06:03:00,20.0,18.0,-100.00,West,270,6.0,9.0,89,0.00,,,0.00,,2013-03-26 11:03:00,
2013-03-26 06:12:00,20.0,18.0,-100.00,West,265,7.0,9.0,90,0.00,,,0.00,,2013-03-26 11:12:00,
2013-03-26 06:22:00,20.0,18.0,-100.00,West,265,7.0,9.0,90,0.00,,,0.00,,2013-03-26 11:22:00,
2013-03-26 06:32:00,19.0,18.0,-100.00,West,275,7.0,10.0,91,0.00,,,0.00,,2013-03-26 11:32:00,
2013-03-26 06:42:00,19.0,16.0,-100.00,West,270,8.0,9.0,91,0.00,,,0.00,,2013-03-26 11:42:00,
2013-03-26 06:52:00,19.0,18.0,-100.00,West,265,7.0,9.0,92,0.00,,,0.00,,2013-03-26 11:52:00,
2013-03-26 07:03:00,18.0,16.0,-100.00,West,270,7.0,10.0,92,0.00,,,0.00,,2013-03-26 12:03:00,
2013-03-26 07:12:00,18.0,16.0,-100.00,West,275,8.0,11.0,92,0.00,,,0.00,,2013-03-26 12:12:00,
2013-03-26 07:22:00,18.0,16.0,-100.00,West,275,8.0,10.0,92,0.00,,,0.00,,2013-03-26 12:22:00,
2013-03-26 07:32:00,18.0,16.0,-100.00,West,265,8.0,11.0,92,0.00,,,0.00,,2013-03-26 12:32:00,
2013-03-26 07:42:00,18.0,16.0,-100.00,West,280,7.0,11.0,92,0.00,,,0.00,,2013-03-26 12:42:00,
2013-03-26 07:52:00,18.0,16.0,-100.00,West,270,8.0,10.0,92,0.00,,,0.00,,2013-03-26 12:52:00,
2013-03-26 08:03:00,18.0,16.0,-100.00,West,270,7.0,11.0,92,0.00,,,0.00,,2013-03-26 13:03:00,
2013-03-26 08:12:00,18.0,16.0,-100.00,West,275,7.0,9.0,92,0.00,,,0.00,,2013-03-26 13:12:00,
2013-03-26 08:22:00,18.0,16.0,-100.00,West,270,6.0,9.0,92,0.00,,,0.00,,2013-03-26 13:22:00,
2013-03-26 08:32:00,18.0,16.0,-100.00,West,270,8.0,9.0,92,0.00,,,0.00,,2013-03-26 13:32:00,
2013-03-26 08:42:00,17.0,16.0,-100.00,West,275,7.0,10.0,92,0.00,,,0.00,,2013-03-26 13:42:00,
2013-03-26 08:52:00,17.0,16.0,-100.00,West,270,7.0,11.0,92,0.00,,,0.00,,2013-03-26 13:52:00,
2013-03-26 09:02:00,17.0,16.0,-100.00,West,280,6.0,9.0,92,0.00,,,0.00,,2013-03-26 14:02:00,
2013-03-26 09:11:00,17.0,16.0,-100.00,West,270,6.0,9.0,91,0.00,,,0.00,,2013-03-26 14:11:00,
2013-03-26 09:22:00,18.0,16.0,-100.00,WNW,290,7.0,9.0,90,0.00,,,0.00,,2013-03-26 14:22:00,
2013-03-26 09:32:00,18.0,16.0,-100.00,WNW,285,7.0,9.0,89,0.00,,,0.00,,2013-03-26 14:32:00,
2013-03-26 09:42:00,18.0,16.0,-100.00,WNW,285,7.0,9.0,88,0.00,,,0.00,,2013-03-26 14:42:00,
2013-03-26 09:52:00,19.0,16.0,-100.00,West,270,8.0,9.0,87,0.00,,,0.00,,2013-03-26 14:52:00,
2013-03-26 10:02:00,20.0,16.0,-100.00,WNW,290,7.0,11.0,87,0.00,,,0.00,,2013-03-26 15:02:00,
2013-03-26 10:12:00,20.0,16.0,-100.00,WNW,290,7.0,9.0,85,0.00,,,0.00,,2013-03-26 15:12:00,
2013-03-26 10:22:00,21.0,16.0,-100.00,West,275,8.0,10.0,84,0.00,,,0.00,,2013-03-26 15:22:00,
2013-03-26 10:33:00,22.0,18.0,-100.00,WNW,295,6.0,9.0,83,0.00,,,0.00,,2013-03-26 15:33:00,
2013-03-26 10:42:00,22.0,18.0,-100.00,West,275,7.0,9.0,81,0.00,,,0.00,,2013-03-26 15:42:00,
2013-03-26 10:52:00,22.0,18.0,-100.00,WNW,300,7.0,9.0,80,0.00,,,0.00,,2013-03-26 15:52:00,
2013-03-26 11:02:00,22.0,18.0,-100.00,WNW,295,9.0,11.0,80,0.00,,,0.00,,2013-03-26 16:02:00,
2013-03-26 11:12:00,22.0,18.0,-100.00,WNW,290,7.0,11.0,80,0.00,,,0.00,,2013-03-26 16:12:00,
2013-03-26 11:22:00,23.0,18.0,-100.00,West,270,7.0,10.0,81,0.00,,,0.00,,2013-03-26 16:22:00,
2013-03-26 11:32:00,24.0,19.0,-100.00,West,270,7.0,10.0,81,0.00,,,0.00,,2013-03-26 16:32:00,
2013-03-26 11:42:00,24.0,19.0,-100.00,West,260,6.0,8.0,80,0.00,,,0.00,,2013-03-26 16:42:00,
2013-03-26 11:53:00,25.0,19.0,-100.00,West,270,6.0,8.0,78,0.00,,,0.00,,2013-03-26 16:53:00,
2013-03-26 12:02:00,25.0,19.0,-100.00,WSW,250,6.0,8.0,78,0.00,,,0.00,,2013-03-26 17:02:00,
2013-03-26 12:12:00,26.0,21.0,-100.00,West,260,5.0,7.0,79,0.00,,,0.00,,2013-03-26 17:12:00,
2013-03-26 12:22:00,27.0,19.0,-100.00,WNW,285,4.0,7.0,75,0.00,,,0.00,,2013-03-26 17:22:00,
2013-03-26 12:32:00,27.0,19.0,-100.00,West,270,6.0,7.0,74,0.00,,,0.00,,2013-03-26 17:32:00,
2013-03-26 12:42:00,27.0,19.0,-100.00,WNW,295,6.0,8.0,74,0.00,,,0.00,,2013-03-26 17:42:00,
2013-03-26 12:52:00,28.0,21.0,-100.00,West,270,7.0,9.0,74,0.00,,,0.00,,2013-03-26 17:52:00,
2013-03-26 13:02:00,28.0,21.0,-100.00,West,260,7.0,9.0,76,0.00,,,0.00,,2013-03-26 18:02:00,
2013-03-26 13:12:00,28.0,21.0,-100.00,West,270,7.0,9.0,76,0.00,,,0.00,,2013-03-26 18:12:00,
2013-03-26 13:23:00,28.0,21.0,-100.00,West,265,7.0,10.0,75,0.00,,,0.00,,2013-03-26 18:23:00,
2013-03-26 13:33:00,29.0,21.0,-100.00,West,265,7.0,9.0,74,0.00,,,0.00,,2013-03-26 18:33:00,
2013-03-26 13:42:00,29.0,21.0,-100.00,West,275,9.0,12.0,73,0.00,,,0.00,,2013-03-26 18:42:00,
2013-03-26 13:52:00,30.0,23.0,-100.00,West,260,9.0,12.0,74,0.00,,,0.00,,2013-03-26 18:52:00,
2013-03-26 14:02:00,30.0,23.0,-100.00,West,270,10.0,12.0,75,0.00,,,0.00,,2013-03-26 19:02:00,
2013-03-26 14:12:00,30.0,21.0,-100.00,West,280,11.0,13.0,71,0.00,,,0.00,,2013-03-26 19:12:00,
2013-03-26 14:22:00,31.0,21.0,-100.00,West,275,9.0,12.0,70,0.00,,,0.00,,2013-03-26 19:22:00,
2013-03-26 14:32:00,31.0,23.0,-100.00,West,265,10.0,12.0,72,0.00,,,0.00,,2013-03-26 19:32:00,
2013-03-26 14:42:00,31.0,23.0,-100.00,West,265,9.0,12.0,73,0.00,,,0.00,,2013-03-26 19:42:00,
2013-03-26 14:52:00,31.0,23.0,-100.00,West,260,9.0,12.0,74,0.00,,,0.00,,2013-03-26 19:52:00,
2013-03-26 15:02:00,32.0,23.0,-100.00,West,275,6.0,10.0,70,0.00,,,0.00,,2013-03-26 20:02:00,
2013-03-26 15:12:00,32.0,23.0,-100.00,WNW,295,7.0,10.0,68,0.00,,,0.00,,2013-03-26 20:12:00,
2013-03-26 15:22:00,32.0,23.0,-100.00,West,280,7.0,10.0,66,0.00,,,0.00,,2013-03-26 20:22:00,
2013-03-26 15:32:00,33.0,23.0,-100.00,WNW,295,6.0,9.0,66,0.00,,,0.00,,2013-03-26 20:32:00,
2013-03-26 15:42:00,33.0,23.0,-100.00,WNW,285,7.0,9.0,66,0.00,,,0.00,,2013-03-26 20:42:00,
2013-03-26 15:52:00,33.0,23.0,-100.00,WNW,295,8.0,11.0,65,0.00,,,0.00,,2013-03-26 20:52:00,
2013-03-26 16:02:00,34.0,23.0,-100.00,NW,315,8.0,9.0,62,0.00,,,0.00,,2013-03-26 21:02:00,
2013-03-26 16:12:00,35.0,21.0,-100.00,NW,320,6.0,9.0,60,0.00,,,0.00,,2013-03-26 21:12:00,
2013-03-26 16:22:00,35.0,23.0,-100.00,NW,305,6.0,8.0,59,0.00,,,0.00,,2013-03-26 21:22:00,
2013-03-26 16:32:00,34.0,21.0,-100.00,WNW,285,6.0,9.0,60,0.00,,,0.00,,2013-03-26 21:32:00,
2013-03-26 16:42:00,36.0,23.0,-100.00,NW,315,7.0,9.0,58,0.00,,,0.00,,2013-03-26 21:42:00,
2013-03-26 16:52:00,35.0,21.0,-100.00,NW,315,6.0,8.0,57,0.00,,,0.00,,2013-03-26 21:52:00,
2013-03-26 17:02:00,35.0,21.0,-100.00,NW,310,7.0,9.0,57,0.00,,,0.00,,2013-03-26 22:02:00,
2013-03-26 17:12:00,35.0,21.0,-100.00,NW,310,6.0,9.0,57,0.00,,,0.00,,2013-03-26 22:12:00,
2013-03-26 17:22:00,35.0,21.0,-100.00,NW,315,5.0,7.0,57,0.00,,,0.00,,2013-03-26 22:22:00,
2013-03-26 17:33:00,35.0,21.0,-100.00,NW,310,6.0,7.0,56,0.00,,,0.00,,2013-03-26 22:33:00,
2013-03-26 17:42:00,34.0,21.0,-100.00,WNW,290,4.0,7.0,58,0.00,,,0.00,,2013-03-26 22:42:00,
2013-03-26 17:52:00,34.0,21.0,-100.00,WNW,295,4.0,7.0,59,0.00,,,0.00,,2013-03-26 22:52:00,
2013-03-26 18:01:00,34.0,21.0,-100.00,WNW,295,4.0,6.0,60,0.00,,,0.00,,2013-03-26 23:01:00,
2013-03-26 18:10:00,34.0,21.0,-100.00,West,270,4.0,6.0,60,0.00,,,0.00,,2013-03-26 23:10:00,
2013-03-26 18:22:00,34.0,21.0,-100.00,WNW,285,4.0,6.0,60,0.00,,,0.00,,2013-03-26 23:22:00,
2013-03-26 18:32:00,34.0,21.0,-100.00,West,280,4.0,5.0,61,0.00,,,0.00,,2013-03-26 23:32:00,
2013-03-26 18:42:00,34.0,21.0,-100.00,West,280,4.0,6.0,62,0.00,,,0.00,,2013-03-26 23:42:00,
2013-03-26 18:52:00,34.0,23.0,-100.00,WNW,295,4.0,4.0,62,0.00,,,0.00,,2013-03-26 23:52:00,
2013-03-26 19:02:00,33.0,23.0,-100.00,WNW,300,4.0,6.0,63,0.00,,,0.00,,2013-03-27 00:02:00,
2013-03-26 19:12:00,33.0,23.0,-100.00,WNW,285,4.0,5.0,63,0.00,,,0.00,,2013-03-27 00:12:00,
2013-03-26 19:22:00,32.0,23.0,-100.00,West,280,4.0,5.0,66,0.00,,,0.00,,2013-03-27 00:22:00,
2013-03-26 19:32:00,32.0,23.0,-100.00,WNW,295,2.0,5.0,67,0.00,,,0.00,,2013-03-27 00:32:00,
2013-03-26 19:42:00,31.0,21.0,-100.00,WNW,295,3.0,4.0,68,0.00,,,0.00,,2013-03-27 00:42:00,
2013-03-26 19:52:00,30.0,21.0,-100.00,West,280,4.0,6.0,70,0.00,,,0.00,,2013-03-27 00:52:00,
2013-03-26 20:02:00,30.0,21.0,-100.00,WNW,295,4.0,6.0,71,0.00,,,0.00,,2013-03-27 01:02:00,
2013-03-26 20:12:00,29.0,21.0,-100.00,West,280,4.0,4.0,71,0.00,,,0.00,,2013-03-27 01:12:00,
2013-03-26 20:22:00,28.0,21.0,-100.00,West,280,2.0,4.0,71,0.00,,,0.00,,2013-03-27 01:22:00,
2013-03-26 20:33:00,28.0,19.0,-100.00,WSW,255,2.0,2.0,73,0.00,,,0.00,,2013-03-27 01:33:00,
2013-03-26 20:42:00,27.0,19.0,-100.00,WSW,245,2.0,4.0,74,0.00,,,0.00,,2013-03-27 01:42:00,
2013-03-26 20:52:00,27.0,19.0,-100.00,WSW,255,3.0,4.0,75,0.00,,,0.00,,2013-03-27 01:52:00,
2013-03-26 21:02:00,26.0,19.0,-100.00,WSW,245,5.0,6.0,79,0.00,,,0.00,,2013-03-27 02:02:00,
2013-03-26 21:12:00,26.0,21.0,-100.00,WSW,240,5.0,6.0,80,0.00,,,0.00,,2013-03-27 02:12:00,
2013-03-26 21:22:00,26.0,21.0,-100.00,WSW,250,4.0,7.0,81,0.00,,,0.00,,2013-03-27 02:22:00,
2013-03-26 21:32:00,26.0,21.0,-100.00,WSW,245,5.0,6.0,82,0.00,,,0.00,,2013-03-27 02:32:00,
2013-03-26 21:42:00,26.0,21.0,-100.00,WSW,255,2.0,5.0,82,0.00,,,0.00,,2013-03-27 02:42:00,
2013-03-26 21:52:00,26.0,21.0,-100.00,West,260,2.0,3.0,83,0.00,,,0.00,,2013-03-27 02:52:00,
2013-03-26 22:02:00,25.0,21.0,-100.00,WNW,290,1.0,2.0,84,0.00,,,0.00,,2013-03-27 03:02:00,
2013-03-26 22:12:00,25.0,21.0,-100.00,West,270,2.0,2.0,85,0.00,,,0.00,,2013-03-27 03:12:00,
2013-03-26 22:22:00,25.0,21.0,-100.00,WSW,250,2.0,2.0,85,0.00,,,0.00,,2013-03-27 03:22:00,
2013-03-26 22:33:00,24.0,21.0,-100.00,WSW,250,2.0,3.0,85,0.00,,,0.00,,2013-03-27 03:33:00,
2013-03-26 22:42:00,24.0,19.0,-100.00,WSW,255,4.0,4.0,86,0.00,,,0.00,,2013-03-27 03:42:00,
2013-03-26 22:52:00,24.0,21.0,-100.00,WSW,250,4.0,6.0,88,0.00,,,0.00,,2013-03-27 03:52:00,
2013-03-26 23:02:00,24.0,21.0,-100.00,WSW,250,3.0,4.0,89,0.00,,,0.00,,2013-03-27 04:02:00,
2013-03-26 23:12:00,24.0,21.0,-100.00,WSW,250,3.0,4.0,90,0.00,,,0.00,,2013-03-27 04:12:00,
2013-03-26 23:23:00,23.0,21.0,-100.00,West,275,1.0,2.0,90,0.00,,,0.00,,2013-03-27 04:23:00,
2013-03-26 23:33:00,23.0,21.0,-100.00,West,280,1.0,2.0,90,0.00,,,0.00,,2013-03-27 04:33:00,
2013-03-26 23:42:00,23.0,21.0,-100.00,WSW,255,1.0,1.0,90,0.00,,,0.00,,2013-03-27 04:42:00,
2013-03-26 23:52:00,22.0,19.0,-100.00,West,270,1.0,1.0,91,0.00,,,0.00,,2013-03-27 04:52:00,